Regional Weather Roundup
Issued by NWS

Home | Current Version | Previous Version | Graphics & Text | Print | Product List | Glossary Off
Versions: 1 2 3 4 5 6 7 8 9 10 11 12 13 14 15 16 17 18 19 20 21 22 23 24 25 26 27 28 29 30 31 32 33 34 35 36 37 38 39 40 41 42 43 44 45 46 47 48 49 50

000
ASUS43 KLOT 212308
RWRIL

ILLINOIS REGIONAL WEATHER ROUNDUP
NATIONAL WEATHER SERVICE CHICAGO/ROMEOVILLE IL
600 PM CDT MON AUG 21 2017

NOTE: "FAIR" INDICATES FEW OR NO CLOUDS BELOW 12,000 FEET WITH NO
SIGNIFICANT WEATHER AND/OR OBSTRUCTIONS TO VISIBILITY.

* THESE STATIONS ARE NOT UNDER NWS QUALITY CONTROL. THEY ALSO MAY NOT
  REPORT WEATHER SUCH AS PRECIPITATION OR FOG.

ILZ001-002-007-009-015-016-024-220000-
NORTHWEST ILLINOIS

CITY           SKY/WX    TMP DP  RH WIND       PRES   REMARKS
MOLINE         CLOUDY    79  69  71 S5        29.97R HX  81
STERLING*      CLOUDY    78  71  79 CALM      29.99S HX  80
SAVANNA*       CLOUDY    79  71  74 S6        29.98S HX  82
$$

ILZ003-004-008-010-011-017-018-220000-
NORTH CENTRAL ILLINOIS

CITY           SKY/WX    TMP DP  RH WIND       PRES   REMARKS
ROCKFORD       CLOUDY    79  69  71 SW9       30.00S HX  81
FREEPORT*      PTSUNNY   77  69  76 SW5       30.00F
ROCHELLE*      CLOUDY    78  72  80 SW6       30.01S HX  80
DE KALB*       PTSUNNY   77  71  82 S10       30.02S
PERU*          CLOUDY    78  69  76 S10       30.02R
$$

ILZ005-006-012>014-019>023-220000-
NORTHEAST ILLINOIS

CITY           SKY/WX    TMP DP  RH WIND       PRES   REMARKS
CHICAGO-OHARE  CLOUDY    84  65  52 SW16      30.00R HX  86
CHICAGO-MIDWAY CLOUDY    85  66  53 SW15G22   30.00R HX  87
AURORA         CLOUDY    79  70  74 SW13      30.03R HX  82
LANSING*       CLOUDY    82  70  65 S7        30.01R HX  86
JOLIET*        CLOUDY    82  73  74 SW6       30.02R HX  87
WAUKEGAN       MOSUNNY   78  72  81 S10       29.98R HAZE    HX  80
DUPAGE AIRPORT CLOUDY    80  69  69 SW14      30.01R HX  83
KANKAKEE*      CLOUDY    81  71  71 S6        30.03R HX  85
WHEELING       CLOUDY    84  65  52 SW13G18   30.01R HX  86
MORRIS*        CLOUDY    80  71  74 SW9       30.02R HX  84
ROMEOVILLE*    CLOUDY    80  69  68 SW12      30.03R HX  82
NORTHERLY ISL    N/A     78  71  79 SE6         N/A  HX  80
$$

LMZ740>746-220000-
SOUTHERN LAKE MICHIGAN

STATION/POSITION SKY/WX   TEMP    WIND        PRES    VSBY  WAVE
                          AIR SEA DIR/SP/G                  HT/PER
                          (F)     (DEG/KT/KT) (MB)    (MI)  (FT/S)
SOUTHERN BUOY              74 72  200/  8/ 10 1015.1R         1
WILMETTE HARBOR            76 75  170/  8/ 10   N/A           1/ 2
HARRISON CRIB              77     220/  7/  8   N/A
CALUMET HARBOR             84     190/  9/ 13 1015.3R
BURNS HARBOR               84     180/ 10/ 17 1016.3R
MICHIGAN CITY              82     170/ 10/ 14   N/A
MICHIGAN CITY 6N           80 76  180/ 10/ 12   N/A           1
ST. JOSEPH                 78 75  200/  6/  8 1015.3          1
$$

ILZ025>027-034>036-040-047-049-050-058-095>099-220000-
WEST-CENTRAL ILLINOIS

CITY           SKY/WX    TMP DP  RH WIND       PRES   REMARKS
QUINCY         CLOUDY    79  72  79 S7        30.00R HX  82
GALESBURG*     CLOUDY    77  71  83 S7        30.01R
MACOMB*        PTSUNNY   77  73  86 SW3       30.02R
JACKSONVILLE*  CLOUDY    80  71  75 S10       30.00R HX  83
PITTSFIELD*    CLOUDY    80  75  84 S7        30.03R HX  85
$$

ILZ028>032-037-038-041>044-048-051>054-059>061-220000-
CENTRAL ILLINOIS

CITY           SKY/WX    TMP DP  RH WIND       PRES   REMARKS
PONTIAC        CLOUDY    81  74  78 S8        30.03R HX  86
BLOOMINGTON    MOSUNNY   80  71  74 S8        30.05R HX  84
DECATUR        CLOUDY    82  72  71 S8        30.04S HX  87
PEORIA         CLOUDY    81  73  76 S8        30.01S HX  86
LACON*         CLOUDY    78  71  79 S3        30.01S HX  80
LINCOLN*       CLOUDY    81  74  79 SE7       30.01F HX  87
SPRINGFIELD    CLOUDY    83  73  72 S9        30.01F HX  89
TAYLORVILLE    PTSUNNY   80  74  80 S6        30.04R HX  84
$$

ILZ033-039-045-046-055>057-062-063-220000-
EAST-CENTRAL ILLINOIS

CITY           SKY/WX    TMP DP  RH WIND       PRES   REMARKS
CHAMPAIGN      CLOUDY    82  72  71 S9        30.05R HX  87
RANTOUL*       CLOUDY    84  75  75 S8        30.04R HX  91
MATTOON        CLOUDY    79  74  84 S12       30.05S HX  82
PARIS*         PTSUNNY   79  69  72 S9        30.07S HX  81
$$

ILZ079-100>102-220000-
SOUTHWEST ILLINOIS

CITY           SKY/WX    TMP DP  RH WIND       PRES   REMARKS
ALTON          PTSUNNY   82  73  74 SE8       30.03S HX  88
BELLEVILLE     MOSUNNY   82  72  71 E7        30.05R HX  86
CAHOKIA*       MOSUNNY   90  67  46 E7        30.02S HX  93
SPARTA*        MOSUNNY   91  74  57 S6        30.04S HX 101
$$

ILZ064>066-069>071-074>076-080>082-084>086-088>090-092>094-220000-
SOUTH-CENTRAL ILLINOIS

CITY           SKY/WX    TMP DP  RH WIND       PRES   REMARKS
CARBONDALE     MOSUNNY   89  78  70 S7        30.04S HX 103
CAIRO*         SUNNY     90  77  66 S6        30.05R HX 102
EFFINGHAM*     CLOUDY    74  73  98 E7        30.07F
MARION         PTSUNNY   93  77  59 S9        30.06R HX 107
MT. VERNON       N/A     80  70  71 VRB5G17   30.09R THUNDER HX  83
CENTRALIA*     CLOUDY    78  76  94 S10       30.06F THUNDER HX  81
SALEM*         CLOUDY    77  73  85 S7        30.06F
METROPOLIS*    HVY RAIN  91  76  61 S6        30.05S HX 103
$$

ILZ067-068-072-073-078-083-087-091-220000-
SOUTHEAST ILLINOIS

CITY           SKY/WX    TMP DP  RH WIND       PRES   REMARKS
LAWRENCEVILLE  CLOUDY    73  32  22 SE3       30.08F
FLORA*         CLOUDY    74  72  92 SE12      30.10R THUNDER
FAIRFIELD*     CLOUDY    75  71  88 N8        30.09R
HARRISBURG*    CLOUDY    93  75  55 SW7       30.04S HX 104
ROBINSON*      LGT RAIN  71  69  93 S7        30.07F
CARMI*         MOSUNNY   83  74  75 NE12G18   30.06R HX  90
$$

ABBREVIATIONS USED IN REMARKS
   TC - TEMPERATURE IN CELSIUS
  WCI - WIND CHILL INDEX
   HX - HEAT INDEX
  VSB - VISIBILITY
$$





USA.gov is the U.S. government's official web portal to all federal, state and local government web resources and services.